| time (UTC) | temp F | wind direction | speed knots | gust knots | rain 1hr in | rain 24hr in | rain mn in | humidity % | barometer mb |
| 20260509161741 | 61 | 270 | 1.7 | 4.3 | 0.00 | 0.00 | 0.00 | 46 | 1013.4 |
| 20260509160741 | 62 | 263 | 1.7 | 2.6 | 0.00 | 0.00 | 0.00 | 46 | 1013.5 |
| 20260509155741 | 62 | 268 | 1.7 | 2.6 | 0.00 | 0.00 | 0.00 | 46 | 1013.4 |
| 20260509154741 | 62 | 255 | 1.7 | 2.6 | 0.00 | 0.00 | 0.00 | 47 | 1013.5 |
| 20260509153741 | 62 | 268 | 1.7 | 2.6 | 0.00 | 0.00 | 0.00 | 47 | 1013.6 |
| 20260509152743 | 62 | 261 | 1.7 | 2.6 | 0.00 | 0.00 | 0.00 | 47 | 1013.5 |
| 20260509151743 | 62 | 270 | 0.9 | 1.7 | 0.00 | 0.00 | 0.00 | 47 | 1013.5 |
| 20260509150743 | 62 | 14 | 0.0 | 0.0 | 0.00 | 0.00 | 0.00 | 47 | 1013.5 |
| 20260509145742 | 62 | 253 | 0.9 | 0.9 | 0.00 | 0.00 | 0.00 | 47 | 1013.4 |
| 20260509144743 | 63 | 262 | 1.7 | 2.6 | 0.00 | 0.00 | 0.00 | 46 | 1013.3 |
| 20260509143742 | 63 | 253 | 0.0 | 1.7 | 0.00 | 0.00 | 0.00 | 46 | 1013.3 |
| 20260509142742 | 63 | 270 | 1.7 | 1.7 | 0.00 | 0.00 | 0.00 | 45 | 1013.4 |
| 20260509141742 | 63 | 255 | 0.9 | 1.7 | 0.00 | 0.00 | 0.00 | 45 | 1013.3 |
| 20260509140742 | 63 | 264 | 1.7 | 1.7 | 0.00 | 0.00 | 0.00 | 44 | 1013.1 |
| 20260509135742 | 64 | 267 | 0.9 | 2.6 | 0.00 | 0.00 | 0.00 | 43 | 1013.1 |
| 20260509134742 | 64 | 272 | 0.9 | 2.6 | 0.00 | 0.00 | 0.00 | 43 | 1013.1 |
| 20260509133742 | 64 | 262 | 0.9 | 1.7 | 0.00 | 0.00 | 0.00 | 42 | 1013.0 |
| 20260509132742 | 64 | 268 | 0.0 | 1.7 | 0.00 | 0.00 | 0.00 | 42 | 1013.0 |
| 20260509124741 | 65 | 242 | 1.7 | 2.6 | 0.00 | 0.00 | 0.00 | 40 | 1012.6 |
| 20260509121743 | 66 | 265 | 2.6 | 5.2 | 0.00 | 0.00 | 0.00 | 38 | 1012.5 |
| 20260509120742 | 66 | 277 | 1.7 | 4.3 | 0.00 | 0.00 | 0.00 | 37 | 1012.4 |
| 20260509113742 | 67 | 268 | 2.6 | 5.2 | 0.00 | 0.00 | 0.00 | 35 | 1012.2 |
| 20260509112742 | 67 | 262 | 2.6 | 4.3 | 0.00 | 0.00 | 0.00 | 36 | 1012.2 |
| 20260509111742 | 67 | 268 | 4.3 | 5.2 | 0.00 | 0.00 | 0.00 | 35 | 1012.2 |
| 20260509110742 | 67 | 262 | 2.6 | 4.3 | 0.00 | 0.00 | 0.00 | 35 | 1012.0 |
| 20260509105742 | 68 | 263 | 4.3 | 4.3 | 0.00 | 0.00 | 0.00 | 34 | 1011.9 |
| 20260509104742 | 68 | 268 | 2.6 | 5.2 | 0.00 | 0.00 | 0.00 | 34 | 1011.8 |
| 20260509103741 | 68 | 267 | 2.6 | 5.2 | 0.00 | 0.00 | 0.00 | 33 | 1011.5 |
| 20260509102743 | 68 | 268 | 4.3 | 7.0 | 0.00 | 0.00 | 0.00 | 34 | 1011.2 |
| 20260509100741 | 69 | 269 | 4.3 | 6.1 | 0.00 | 0.00 | 0.00 | 33 | 1010.9 |
| 20260509095741 | 69 | 267 | 6.1 | 7.8 | 0.00 | 0.00 | 0.00 | 33 | 1010.6 |
| 20260509094743 | 69 | 265 | 6.1 | 7.0 | 0.00 | 0.00 | 0.00 | 32 | 1010.3 |
| 20260509093743 | 69 | 265 | 6.1 | 7.8 | 0.00 | 0.00 | 0.00 | 32 | 1010.0 |
| 20260509092742 | 70 | 262 | 6.1 | 11.3 | 0.00 | 0.00 | 0.00 | 31 | 1009.9 |
| 20260509091742 | 70 | 264 | 5.2 | 8.7 | 0.00 | 0.00 | 0.00 | 31 | 1009.6 |
| 20260509090742 | 71 | 270 | 6.1 | 10.4 | 0.00 | 0.00 | 0.00 | 31 | 1009.5 |
| 20260509085742 | 71 | 270 | 5.2 | 7.8 | 0.00 | 0.00 | 0.00 | 30 | 1009.4 |
| 20260509084742 | 72 | 263 | 4.3 | 7.0 | 0.00 | 0.00 | 0.00 | 30 | 1009.5 |
| 20260509083742 | 72 | 271 | 5.2 | 7.0 | 0.00 | 0.00 | 0.00 | 29 | 1009.4 |
| 20260509082742 | 72 | 267 | 5.2 | 7.8 | 0.00 | 0.00 | 0.00 | 30 | 1009.3 |
| 20260509081742 | 72 | 263 | 4.3 | 5.2 | 0.00 | 0.00 | 0.00 | 29 | 1009.2 |
| 20260509080741 | 72 | 275 | 6.1 | 7.8 | 0.00 | 0.00 | 0.00 | 29 | 1009.0 |
| 20260509075741 | 73 | 270 | 4.3 | 7.0 | 0.00 | 0.00 | 0.00 | 29 | 1008.8 |
| 20260509074741 | 73 | 277 | 4.3 | 5.2 | 0.00 | 0.00 | 0.00 | 29 | 1008.6 |
| 20260509073741 | 73 | 271 | 5.2 | 7.0 | 0.00 | 0.00 | 0.00 | 30 | 1008.6 |
| 20260509072741 | 74 | 267 | 4.3 | 7.8 | 0.00 | 0.00 | 0.00 | 29 | 1008.5 |
| 20260509071741 | 74 | 265 | 5.2 | 7.0 | 0.00 | 0.00 | 0.00 | 28 | 1008.5 |
| 20260509070743 | 74 | 270 | 5.2 | 8.7 | 0.00 | 0.00 | 0.00 | 27 | 1008.5 |
| 20260509065743 | 74 | 265 | 5.2 | 8.7 | 0.00 | 0.00 | 0.00 | 25 | 1008.2 |
| 20260509064743 | 74 | 270 | 7.0 | 10.4 | 0.00 | 0.00 | 0.00 | 24 | 1008.1 |
| 20260509063742 | 75 | 265 | 6.1 | 7.8 | 0.00 | 0.00 | 0.00 | 24 | 1008.1 |
| 20260509062742 | 75 | 267 | 5.2 | 11.3 | 0.00 | 0.00 | 0.00 | 25 | 1007.7 |
| 20260509061742 | 75 | 272 | 6.1 | 8.7 | 0.00 | 0.00 | 0.00 | 25 | 1007.8 |
| 20260509060742 | 75 | 276 | 4.3 | 7.0 | 0.00 | 0.00 | 0.00 | 26 | 1007.5 |
| 20260509055742 | 75 | 260 | 6.1 | 10.4 | 0.00 | 0.00 | 0.00 | 24 | 1007.6 |
| 20260509054742 | 75 | 265 | 5.2 | 7.8 | 0.00 | 0.00 | 0.00 | 25 | 1007.8 |
| 20260509053742 | 75 | 267 | 5.2 | 10.4 | 0.00 | 0.00 | 0.00 | 27 | 1007.9 |
| 20260509052741 | 75 | 273 | 4.3 | 6.1 | 0.00 | 0.00 | 0.00 | 26 | 1007.9 |
| 20260509051741 | 75 | 271 | 4.3 | 7.0 | 0.00 | 0.00 | 0.00 | 26 | 1007.8 |
| 20260509050742 | 74 | 265 | 5.2 | 10.4 | 0.00 | 0.00 | 0.00 | 27 | 1007.8 |
| 20260509045741 | 75 | 268 | 5.2 | 7.8 | 0.00 | 0.00 | 0.00 | 26 | 1007.7 |
| 20260509044741 | 74 | 273 | 6.1 | 7.0 | 0.00 | 0.00 | 0.00 | 24 | 1007.8 |
| 20260509043743 | 74 | 268 | 7.0 | 11.3 | 0.00 | 0.00 | 0.00 | 27 | 1007.8 |
| 20260509042742 | 74 | 279 | 6.1 | 11.3 | 0.00 | 0.00 | 0.00 | 26 | 1007.7 |
| 20260509040742 | 74 | 265 | 6.1 | 10.4 | 0.00 | 0.00 | 0.00 | 26 | 1007.7 |
| 20260509035742 | 73 | 268 | 6.1 | 12.2 | 0.00 | 0.00 | 0.00 | 27 | 1007.8 |
| 20260509034742 | 73 | 269 | 5.2 | 7.8 | 0.00 | 0.00 | 0.00 | 27 | 1007.7 |
| 20260509033742 | 73 | 267 | 6.1 | 10.4 | 0.00 | 0.00 | 0.00 | 27 | 1007.8 |
| 20260509032742 | 73 | 267 | 6.1 | 8.7 | 0.00 | 0.00 | 0.00 | 27 | 1007.9 |
| 20260509031741 | 73 | 269 | 2.6 | 6.1 | 0.00 | 0.00 | 0.00 | 27 | 1008.0 |
| 20260509030741 | 73 | 259 | 6.1 | 7.8 | 0.00 | 0.00 | 0.00 | 28 | 1008.2 |
| 20260509025741 | 73 | 267 | 5.2 | 10.4 | 0.00 | 0.00 | 0.00 | 29 | 1008.1 |
| 20260509024741 | 72 | 275 | 5.2 | 7.0 | 0.00 | 0.00 | 0.00 | 29 | 1008.2 |
| 20260509023741 | 72 | 267 | 6.1 | 7.8 | 0.00 | 0.00 | 0.00 | 29 | 1008.1 |
| 20260509022743 | 71 | 251 | 5.2 | 6.1 | 0.00 | 0.00 | 0.00 | 30 | 1008.4 |
| 20260509021743 | 71 | 269 | 6.1 | 8.7 | 0.00 | 0.00 | 0.00 | 32 | 1008.4 |
| 20260509020743 | 71 | 269 | 4.3 | 6.1 | 0.00 | 0.00 | 0.00 | 32 | 1008.6 |
| 20260509015742 | 70 | 269 | 6.1 | 8.7 | 0.00 | 0.00 | 0.00 | 34 | 1008.5 |
| 20260509014742 | 69 | 271 | 7.0 | 10.4 | 0.00 | 0.00 | 0.00 | 34 | 1008.6 |
| 20260509013742 | 69 | 261 | 4.3 | 7.0 | 0.00 | 0.00 | 0.00 | 36 | 1008.8 |
| 20260509012742 | 69 | 267 | 6.1 | 7.8 | 0.00 | 0.00 | 0.00 | 36 | 1008.6 |
| 20260509011742 | 68 | 271 | 6.1 | 7.8 | 0.00 | 0.00 | 0.00 | 37 | 1008.7 |
| 20260509010742 | 68 | 265 | 5.2 | 8.7 | 0.00 | 0.00 | 0.00 | 38 | 1008.7 |
| 20260509005741 | 67 | 264 | 6.1 | 7.8 | 0.00 | 0.00 | 0.00 | 38 | 1008.8 |
| 20260509004741 | 67 | 263 | 6.1 | 7.8 | 0.00 | 0.00 | 0.00 | 39 | 1008.7 |
| 20260509003741 | 67 | 274 | 5.2 | 7.8 | 0.00 | 0.00 | 0.00 | 39 | 1008.7 |
| 20260509002744 | 66 | 263 | 5.2 | 7.8 | 0.00 | 0.00 | 0.00 | 41 | 1008.5 |
| 20260509001743 | 66 | 261 | 5.2 | 7.0 | 0.00 | 0.00 | 0.00 | 42 | 1008.3 |
| 20260509000744 | 66 | 262 | 4.3 | 7.8 | 0.00 | 0.00 | 0.00 | 43 | 1008.2 |
| 20260508235742 | 65 | 264 | 6.1 | 8.7 | 0.00 | 0.00 | 0.00 | 44 | 1008.3 |
| 20260508234742 | 64 | 261 | 5.2 | 6.1 | 0.00 | 0.00 | 0.00 | 45 | 1008.4 |
| 20260508233742 | 63 | 272 | 6.1 | 7.8 | 0.00 | 0.00 | 0.00 | 47 | 1008.2 |
| 20260508231742 | 63 | 264 | 5.2 | 11.3 | 0.00 | 0.00 | 0.00 | 48 | 1008.4 |
| 20260508230742 | 63 | 265 | 6.1 | 12.2 | 0.00 | 0.00 | 0.00 | 48 | 1008.3 |
| 20260508225742 | 63 | 268 | 4.3 | 8.7 | 0.00 | 0.00 | 0.00 | 48 | 1008.2 |
| 20260508224742 | 63 | 263 | 5.2 | 7.8 | 0.00 | 0.00 | 0.00 | 48 | 1008.2 |
| 20260508223741 | 63 | 259 | 2.6 | 5.2 | 0.00 | 0.00 | 0.00 | 48 | 1008.2 |
| 20260508222741 | 63 | 269 | 2.6 | 4.3 | 0.00 | 0.00 | 0.00 | 48 | 1008.2 |
| 20260508220741 | 61 | 264 | 4.3 | 7.8 | 0.00 | 0.00 | 0.00 | 50 | 1008.2 |
| 20260508215741 | 61 | 263 | 2.6 | 7.0 | 0.00 | 0.00 | 0.00 | 50 | 1008.0 |
| 20260508214744 | 61 | 266 | 4.3 | 6.1 | 0.00 | 0.00 | 0.00 | 51 | 1007.9 |
| 20260508213743 | 61 | 269 | 4.3 | 7.0 | 0.00 | 0.00 | 0.00 | 51 | 1008.0 |
| 20260508211741 | 60 | 262 | 4.3 | 7.0 | 0.00 | 0.00 | 0.00 | 51 | 1007.7 |
| 20260508210741 | 61 | 274 | 1.7 | 4.3 | 0.00 | 0.00 | 0.00 | 52 | 1007.6 |
| 20260508205742 | 60 | 269 | 4.3 | 7.0 | 0.00 | 0.00 | 0.00 | 52 | 1007.7 |
| 20260508204742 | 60 | 263 | 2.6 | 5.2 | 0.00 | 0.00 | 0.00 | 53 | 1007.7 |
| 20260508203742 | 59 | 261 | 4.3 | 6.1 | 0.00 | 0.00 | 0.00 | 54 | 1007.4 |
| 20260508202742 | 60 | 261 | 5.2 | 7.0 | 0.00 | 0.00 | 0.00 | 53 | 1007.4 |
| 20260508201742 | 60 | 264 | 4.3 | 7.0 | 0.00 | 0.00 | 0.00 | 55 | 1007.3 |
| 20260508200742 | 60 | 263 | 4.3 | 7.8 | 0.00 | 0.00 | 0.00 | 54 | 1007.0 |
| 20260508195742 | 60 | 261 | 2.6 | 5.2 | 0.00 | 0.00 | 0.00 | 54 | 1006.8 |
| 20260508194741 | 60 | 268 | 6.1 | 7.8 | 0.00 | 0.00 | 0.00 | 52 | 1006.7 |
| 20260508193741 | 60 | 264 | 4.3 | 7.0 | 0.00 | 0.00 | 0.00 | 54 | 1006.6 |
| 20260508192742 | 60 | 273 | 4.3 | 7.8 | 0.00 | 0.00 | 0.00 | 53 | 1006.4 |
| 20260508191742 | 60 | 259 | 5.2 | 6.1 | 0.00 | 0.00 | 0.00 | 52 | 1006.3 |
| 20260508190742 | 60 | 275 | 5.2 | 7.0 | 0.00 | 0.00 | 0.00 | 52 | 1006.1 |
| 20260508185743 | 60 | 267 | 4.3 | 7.0 | 0.00 | 0.00 | 0.00 | 51 | 1006.0 |
| 20260508184742 | 60 | 260 | 4.3 | 6.1 | 0.00 | 0.00 | 0.00 | 51 | 1005.7 |
| 20260508183742 | 60 | 264 | 6.1 | 8.7 | 0.00 | 0.00 | 0.00 | 49 | 1005.6 |
| 20260508182742 | 60 | 268 | 5.2 | 7.0 | 0.00 | 0.00 | 0.00 | 46 | 1005.7 |
| 20260508181741 | 61 | 266 | 4.3 | 6.1 | 0.00 | 0.00 | 0.00 | 46 | 1005.6 |
| 20260508180741 | 61 | 265 | 4.3 | 7.0 | 0.00 | 0.00 | 0.00 | 45 | 1005.6 |
| 20260508175741 | 61 | 266 | 4.3 | 7.0 | 0.00 | 0.00 | 0.00 | 44 | 1005.5 |
| 20260508174741 | 61 | 263 | 6.1 | 8.7 | 0.00 | 0.00 | 0.00 | 44 | 1005.5 |
| 20260508173741 | 61 | 265 | 4.3 | 6.1 | 0.00 | 0.00 | 0.00 | 44 | 1005.5 |
| 20260508172743 | 61 | 267 | 5.2 | 7.8 | 0.00 | 0.00 | 0.00 | 42 | 1005.5 |
| 20260508171743 | 61 | 247 | 4.3 | 7.0 | 0.00 | 0.00 | 0.00 | 41 | 1005.5 |
| 20260508170743 | 62 | 270 | 5.2 | 8.7 | 0.00 | 0.00 | 0.00 | 39 | 1005.4 |
| 20260508165743 | 62 | 269 | 6.1 | 10.4 | 0.00 | 0.00 | 0.00 | 38 | 1005.5 |
| 20260508164742 | 62 | 256 | 6.1 | 8.7 | 0.00 | 0.00 | 0.00 | 37 | 1005.5 |
| 20260508163742 | 62 | 265 | 4.3 | 7.8 | 0.00 | 0.00 | 0.00 | 38 | 1005.4 |
| 20260508162742 | 62 | 270 | 5.2 | 7.8 | 0.00 | 0.00 | 0.00 | 37 | 1005.6 |